RH
28 42 67 72 76 85 84 82 83 87 88 80 76 71 65 61 55 49 43 40 38 31 20 16 20 22 21 21 21 20 21 25 30 35 37 34 33 28 24 23 20 21 26 28 33 36 33 28 20 13 12 12 12 13 12 12 11 11 11 11 11 12 12 12 11 11 12 14 17 18 20 23 28 33 35 39 40 40 41 39 40 41 41 41 36 32 29 28 38 40 46 53 54 59 53 45 44
28 54 71 72 78 85 82 80 85 87 87 83 79 73 67 61 53 44 35 32 33 28 22 18 20 22 22 21 20 20 22 25 28 32 33 31 30 26 21 20 18 20 24 31 38 34 28 23 16 12 13 13 14 14 13 11 10 10 9 9 10 10 10 10 10 11 13 14 16 17 17 19 26 32 34 38 42 45 45 44 44 42 42 44 43 38 35 35 39 39 44 52 53 55 50 45 46
36 62 68 71 77 82 80 77 84 87 89 87 79 73 71 64 53 40 27 23 26 23 19 17 19 23 23 21 20 20 23 24 26 28 30 29 27 23 18 17 17 19 27 36 42 34 22 16 13 14 14 14 14 13 12 11 10 11 11 11 10 10 10 9 11 12 13 15 21 22 19 20 25 29 36 45 50 52 49 50 49 45 44 45 48 46 44 43 41 41 43 50 53 50 47 47 50
40 62 63 69 75 81 83 80 80 83 89 87 79 75 71 67 57 40 23 16 21 24 18 16 19 23 24 22 21 21 23 24 25 26 28 28 26 22 18 16 15 17 25 34 39 32 18 14 14 15 14 14 13 12 12 12 12 13 14 15 15 15 16 19 23 25 26 30 36 34 28 31 33 34 46 60 62 60 57 56 55 54 57 56 56 54 52 50 45 45 46 47 49 47 48 49 53
37 58 62 69 74 83 88 84 80 79 85 85 79 77 72 68 58 37 20 11 17 25 18 15 19 22 24 24 22 22 23 23 24 24 25 27 26 23 19 16 14 13 16 20 26 23 14 13 14 14 14 14 13 14 14 14 18 20 24 28 28 30 32 36 38 40 43 44 46 45 44 46 48 49 58 73 71 64 66 67 63 63 72 72 66 60 56 56 50 47 48 47 48 49 51 53 57
37 54 61 69 72 81 89 84 83 80 80 84 80 76 75 69 54 31 15 9 12 19 15 14 19 21 24 25 23 22 23 23 22 23 23 26 28 26 22 18 14 12 11 12 16 14 11 12 12 13 14 14 16 18 20 24 31 37 46 47 44 47 47 48 49 49 50 49 51 55 61 62 62 61 67 85 80 66 70 77 75 73 80 79 72 68 62 62 59 51 52 55 55 55 55 57 61
36 51 58 66 69 77 87 82 82 86 81 81 80 75 76 69 51 29 13 9 11 15 14 14 19 22 23 25 25 22 23 23 22 22 23 26 29 29 26 22 17 14 12 12 12 11 12 13 14 16 16 19 22 28 36 44 48 53 64 61 54 56 54 53 53 52 52 51 52 58 69 71 71 69 69 88 89 74 73 79 80 76 82 83 75 71 67 67 67 60 60 63 60 58 58 59 60
31 47 54 60 68 75 83 82 78 87 86 81 81 79 76 67 51 30 13 10 12 15 14 14 19 21 22 24 24 22 23 23 22 23 23 26 29 31 29 27 24 21 18 17 16 17 18 19 21 22 23 26 29 41 54 59 58 63 72 66 60 60 57 57 54 54 56 55 55 63 74 74 72 69 66 81 85 72 72 78 75 69 76 82 76 73 72 73 71 66 65 66 63 61 59 58 57
23 38 50 56 65 70 76 77 71 80 87 82 78 78 75 65 51 30 12 9 11 15 16 15 19 21 21 22 23 22 23 23 22 23 24 25 28 31 31 31 30 28 26 24 23 23 25 27 29 29 30 32 36 47 56 59 60 65 69 63 59 59 58 58 57 58 57 56 54 57 68 73 76 71 61 75 82 66 68 78 70 65 72 76 77 77 76 74 73 68 67 69 66 64 60 56 52
21 27 41 51 55 62 70 68 65 74 85 86 77 74 73 64 50 25 8 8 9 14 16 15 19 23 21 21 23 22 21 21 21 23 24 24 28 30 31 32 33 33 32 31 30 30 32 33 34 34 35 37 43 47 51 58 58 59 61 56 53 55 56 55 55 56 52 50 47 43 47 57 73 77 61 64 74 66 70 80 73 69 73 76 80 80 77 75 75 70 71 74 71 68 61 53 44
22 22 31 43 47 58 67 60 64 76 82 89 85 78 72 64 51 23 6 8 9 13 14 14 19 22 20 20 23 22 20 20 19 20 22 23 26 29 30 32 34 36 36 36 35 35 36 36 36 38 39 39 43 44 49 57 54 53 55 49 49 54 56 55 55 52 48 44 41 38 34 38 58 76 65 53 61 69 78 84 76 72 75 78 82 81 78 76 76 74 76 76 73 69 61 49 34
22 23 25 32 38 53 62 53 60 75 76 83 89 84 72 63 50 21 6 8 9 13 12 14 18 19 19 19 21 23 21 20 18 17 20 23 25 27 29 31 34 37 38 38 38 38 38 38 39 40 41 41 40 39 43 48 45 48 50 48 53 59 57 56 55 49 47 44 41 38 33 35 47 60 55 46 58 75 88 89 76 69 72 75 78 79 75 75 77 77 76 72 68 61 52 41 26
23 24 24 25 30 43 55 49 49 64 70 78 87 86 72 65 50 17 6 9 8 12 12 14 16 16 17 18 20 22 22 21 18 15 17 21 23 27 29 31 34 36 38 39 39 39 39 40 41 42 42 42 41 38 37 39 41 44 46 47 52 58 58 56 54 49 46 44 42 35 30 35 42 47 43 41 56 71 84 89 78 69 68 67 71 74 71 75 78 73 70 67 62 54 42 33 23
27 25 25 25 26 33 46 45 45 56 66 74 80 85 76 66 48 16 5 9 8 11 12 14 15 13 15 17 19 21 22 22 18 15 17 20 23 25 28 30 32 34 37 40 40 40 40 41 41 41 42 43 43 40 39 38 37 38 41 42 44 51 56 57 54 50 48 44 39 30 28 35 45 50 43 38 50 63 73 82 82 73 67 68 72 73 70 76 81 74 67 63 63 57 47 36 25
30 29 27 27 26 29 36 39 50 61 70 78 79 84 80 66 46 16 5 7 8 11 12 13 14 11 12 15 18 20 22 22 18 15 16 19 21 24 28 31 32 33 37 40 42 41 41 42 41 39 40 42 41 39 38 36 32 33 37 39 41 48 54 57 56 50 45 41 37 32 28 34 46 51 44 40 44 57 68 71 75 71 67 72 74 74 73 78 85 79 68 64 65 64 59 45 28
32 31 29 29 28 30 32 37 57 73 84 92 88 87 81 64 40 14 5 7 6 10 12 13 15 12 10 11 15 20 21 21 18 14 15 17 20 24 28 31 31 32 35 39 41 41 41 41 40 38 38 40 41 38 34 31 30 32 36 40 44 49 55 57 55 48 44 42 39 32 28 30 39 46 45 44 43 53 65 59 59 63 66 69 71 74 73 76 81 76 69 67 67 66 61 45 34
34 34 32 32 31 31 33 43 65 84 96 99 94 91 80 60 35 14 7 7 6 9 12 14 17 14 9 8 12 19 21 19 17 14 14 16 19 23 28 30 30 31 33 36 37 38 39 39 38 39 41 43 42 38 33 29 29 32 36 42 44 47 53 56 52 48 47 48 41 29 26 28 31 39 45 46 42 47 57 53 50 56 62 59 59 64 64 71 79 74 67 63 61 57 45 34 30
32 34 35 34 34 33 34 51 72 88 96 96 96 89 74 59 39 20 10 7 6 7 11 14 17 16 9 6 10 16 18 17 16 14 13 15 18 22 27 30 31 32 33 34 35 35 36 37 36 38 43 43 41 38 34 30 28 32 39 44 44 44 50 52 50 50 52 50 41 28 26 29 27 31 42 47 45 45 50 51 50 55 60 54 48 51 53 60 67 65 59 53 50 43 34 29 25
28 31 34 34 34 32 38 61 76 85 96 99 95 82 66 53 39 23 9 5 7 7 11 15 17 17 11 7 9 14 16 17 16 14 13 14 17 20 24 28 31 33 35 36 34 33 33 35 35 37 40 42 43 42 39 33 30 34 40 44 44 44 46 46 48 52 51 44 35 28 26 27 27 30 40 47 47 47 48 48 48 52 57 53 44 41 43 45 46 46 44 40 37 31 28 29 28
26 27 30 31 33 31 42 69 76 80 96 99 85 70 59 50 39 24 7 5 7 6 10 14 16 17 13 9 9 14 16 17 17 15 14 15 17 19 22 26 31 35 38 40 39 34 31 32 35 38 41 44 44 43 40 35 32 35 39 43 42 42 46 48 52 53 46 36 28 24 22 25 28 32 38 43 45 45 48 50 47 46 48 46 40 36 36 39 37 31 29 26 24 23 24 28 29
25 25 28 29 30 33 48 72 77 76 84 84 72 62 57 50 43 27 7 5 7 5 8 10 12 14 14 10 10 14 16 17 17 15 15 16 17 19 21 24 31 36 40 44 44 37 31 32 36 41 44 45 45 42 39 36 35 39 42 44 42 45 50 52 53 51 41 30 21 15 17 23 26 29 33 36 39 36 41 46 39 33 34 34 34 33 32 33 30 24 22 22 23 25 27 27 24
25 24 27 28 28 37 58 77 81 78 74 67 62 59 56 49 43 29 9 4 6 6 6 7 8 11 13 11 11 14 15 16 14 14 16 17 18 18 20 23 29 36 41 45 45 37 31 32 37 42 44 45 46 45 43 41 40 41 45 47 48 50 53 53 53 49 38 25 16 13 15 22 23 25 30 31 31 26 24 27 22 21 23 24 27 29 29 28 24 22 23 25 28 28 25 20 16
26 24 25 26 29 42 67 84 85 84 79 68 63 60 57 52 45 37 20 6 5 7 6 6 7 8 10 10 12 14 14 13 11 10 14 17 18 19 20 22 27 34 39 43 43 38 32 33 36 39 43 44 45 45 43 43 43 43 44 47 50 52 53 54 54 48 38 25 16 14 16 22 23 23 27 28 26 22 18 18 18 19 21 23 27 30 29 26 24 25 27 28 26 21 16 13 12
27 25 25 26 30 44 68 84 87 88 86 79 72 67 65 60 49 42 30 11 5 7 7 7 7 8 9 10 12 14 14 13 11 9 11 17 20 20 21 22 25 31 36 38 38 37 35 35 38 40 42 42 41 38 36 38 41 42 43 46 48 50 52 52 51 47 39 27 17 15 17 21 24 23 25 28 26 23 21 20 20 20 22 25 28 30 29 28 28 29 27 23 16 11 10 10 10
26 25 27 27 28 45 67 79 84 89 92 88 80 71 67 65 55 46 34 16 6 6 8 7 7 7 7 9 12 14 15 15 13 11 9 16 21 21 21 22 24 28 33 35 33 32 33 36 39 43 44 43 38 31 28 33 39 43 45 46 46 46 47 46 44 41 35 25 18 16 17 20 24 23 24 26 27 26 24 22 22 22 23 25 27 28 29 30 29 25 18 12 8 8 7 7 6
22 23 27 27 27 45 69 76 80 89 95 95 89 76 66 64 63 55 39 20 9 5 7 8 6 8 7 8 11 13 16 16 13 10 8 12 20 22 21 22 23 27 31 33 32 28 28 33 37 42 44 44 38 28 25 32 40 47 49 48 44 41 42 42 38 33 29 23 18 17 17 20 23 24 24 25 26 26 25 24 23 23 23 25 26 28 29 27 21 13 8 6 5 5 4 4 4
17 24 27 28 25 38 64 74 77 89 94 93 96 87 72 65 65 62 46 28 17 8 5 8 7 6 7 7 9 12 14 15 13 10 8 8 15 21 20 21 22 25 29 33 33 28 25 27 33 40 43 42 34 25 27 36 43 48 50 48 41 37 38 38 34 29 24 20 19 18 17 19 23 24 24 24 25 24 24 24 23 24 25 26 28 27 24 17 10 6 4 4 4 3 3 3 3
13 24 26 26 26 30 50 68 75 85 88 86 94 94 82 73 67 62 50 36 27 17 6 5 8 7 7 7 7 10 12 14 14 11 9 7 9 15 17 19 21 23 27 31 33 31 26 23 29 38 43 41 29 20 26 37 44 46 47 45 38 34 35 36 32 26 20 18 18 17 16 18 24 25 24 24 24 23 23 24 24 25 26 27 25 20 13 7 4 4 4 3 3 3 3 3 3
11 21 22 25 31 30 38 59 76 86 88 85 89 92 88 83 75 64 52 38 30 26 15 4 6 7 7 7 6 8 11 12 13 13 10 8 7 10 13 15 18 21 23 27 31 34 33 26 25 32 40 43 32 19 20 31 41 43 41 38 33 31 32 35 32 24 18 17 16 14 13 16 22 25 24 24 24 23 24 24 25 26 27 24 17 10 5 4 4 4 4 4 4 4 4 4 5
9 15 19 24 32 35 44 66 80 84 88 88 88 94 94 91 87 72 58 44 31 31 27 11 4 7 7 7 6 6 8 11 13 14 13 10 8 7 9 11 13 17 19 22 26 32 36 32 25 25 31 40 39 27 18 23 35 39 36 31 28 26 29 33 32 24 17 16 15 12 10 12 20 26 25 25 25 25 25 25 26 25 22 15 8 5 4 4 4 4 5 5 6 6 7 8 8
8 11 17 23 31 44 60 78 84 83 89 93 92 97 98 97 96 84 68 55 40 33 32 20 6 5 8 7 7 5 6 9 11 13 14 12 10 8 7 8 9 12 16 17 21 26 32 33 28 23 25 33 40 35 22 20 29 36 35 29 24 22 24 28 29 23 17 15 15 13 10 9 14 22 25 26 26 26 26 25 22 17 12 7 5 5 5 5 6 7 8 8 8 9 10 11 11
8 13 20 21 30 52 70 83 91 90 91 95 96 97 97 98 100 94 79 63 50 38 30 26 15 6 7 7 6 6 5 7 9 12 14 14 12 10 8 7 7 9 12 14 16 20 24 28 27 23 23 28 35 37 26 19 24 32 35 30 24 20 19 22 24 21 16 14 15 14 10 7 9 14 19 20 20 20 19 16 12 8 6 5 5 5 6 7 8 9 9 10 10 11 12 12 12
9 15 24 20 24 46 68 84 92 88 85 92 98 96 96 98 100 98 87 69 58 48 34 27 23 15 9 7 6 6 6 6 8 10 12 14 14 13 10 8 7 7 8 9 12 15 17 20 22 22 23 24 27 32 27 19 21 28 32 29 25 20 17 17 19 19 15 13 13 13 11 7 6 8 10 11 11 10 8 8 6 5 6 6 6 7 8 9 10 10 10 11 12 12 13 13 13
11 17 24 21 20 36 62 83 89 82 80 87 94 96 98 98 97 100 95 78 64 56 45 31 27 25 16 9 7 7 7 6 6 7 9 12 14 14 13 10 8 7 7 6 8 10 12 15 17 17 20 20 19 22 23 18 19 26 28 25 22 18 16 15 16 16 16 14 12 11 11 8 6 5 6 7 6 6 5 5 6 6 7 7 8 9 10 10 10 11 11 12 12 12 13 13 13
15 21 26 23 23 36 59 82 87 83 81 79 85 94 98 97 94 98 100 91 74 62 56 42 30 30 23 13 9 8 8 6 5 6 7 9 12 14 14 11 9 8 7 7 7 7 8 11 13 13 15 15 13 13 15 13 15 22 25 21 17 14 14 15 15 15 15 15 13 11 11 10 8 6 5 5 6 5 5 5 6 7 8 8 10 10 11 11 11 12 12 12 12 12 12 12 13
15 21 26 22 25 39 51 68 77 83 87 79 83 94 97 99 96 97 101 99 87 70 64 56 38 32 30 20 12 9 8 7 6 6 6 7 8 11 13 13 11 8 8 7 7 6 6 8 9 10 10 11 9 8 9 8 10 18 21 19 15 11 11 13 15 15 15 15 15 13 12 11 11 9 7 6 5 5 5 5 5 6 8 9 11 10 11 11 12 12 12 12 12 12 12 12 12
13 18 25 17 27 49 46 53 66 79 92 85 83 93 96 99 96 94 98 99 97 83 76 72 51 37 35 28 20 14 10 7 6 7 7 6 6 7 10 12 12 10 8 7 7 7 6 7 7 8 8 8 7 6 6 6 7 11 15 16 15 11 9 11 13 14 15 15 15 14 13 12 11 10 9 7 6 5 5 6 6 6 8 10 10 10 10 11 12 12 12 12 12 13 13 13 13
11 16 26 16 35 69 61 59 70 76 92 93 85 87 90 94 91 91 94 96 100 94 90 87 63 44 40 34 29 23 16 12 9 8 8 8 6 6 8 10 11 10 9 7 7 7 7 7 7 7 8 8 7 6 6 6 6 7 10 13 14 12 10 9 11 13 15 16 15 14 13 13 12 10 9 8 7 6 5 6 6 6 8 9 9 9 9 10 12 12 12 13 13 14 14 15 15
11 16 25 16 40 84 80 71 76 76 92 99 93 91 91 91 85 85 87 89 97 95 94 93 71 52 47 39 34 29 25 22 16 11 10 10 8 7 7 7 9 10 11 9 8 7 7 7 7 7 7 7 8 7 7 7 7 7 7 9 11 11 10 9 9 11 14 16 16 15 13 12 12 11 10 9 8 6 6 6 6 7 7 8 8 8 9 10 12 12 13 14 14 14 15 16 16
12 17 22 18 44 91 95 81 80 85 97 98 95 95 94 93 86 81 79 81 92 94 95 96 79 62 56 47 38 35 33 30 23 15 12 11 10 8 7 7 7 8 10 11 9 8 7 7 7 7 7 7 7 8 8 7 7 7 7 7 8 9 10 9 9 9 11 14 15 15 14 12 11 11 11 10 10 9 8 8 8 8 8 8 9 9 9 10 11 12 13 14 14 15 15 17 18
13 19 22 20 46 90 102 91 85 90 100 98 95 93 91 95 92 82 74 74 86 92 96 101 92 77 71 61 45 38 37 33 27 19 13 12 11 9 7 7 7 7 8 10 10 9 8 7 7 7 7 7 7 8 8 8 7 7 6 7 7 7 8 8 8 9 9 11 14 14 13 12 11 11 11 11 10 10 10 10 10 10 10 10 11 10 10 10 11 11 12 13 14 15 15 17 19
15 23 24 20 42 83 100 97 93 92 97 99 95 94 93 95 94 83 72 72 80 84 88 97 100 92 87 78 59 44 38 35 31 23 15 11 9 8 8 7 8 7 7 7 9 10 9 8 8 8 7 7 7 8 8 8 8 8 8 8 8 8 8 8 8 9 9 9 11 12 12 12 12 11 11 11 11 10 11 11 11 11 11 12 12 12 12 11 11 11 11 12 13 13 14 15 17
15 26 30 21 34 75 96 98 99 95 96 97 92 95 97 93 91 83 74 74 76 76 77 86 97 97 93 87 72 55 46 40 38 31 20 14 10 7 7 8 8 8 8 7 7 10 10 9 8 8 8 8 8 8 8 8 8 9 10 12 13 11 9 9 9 9 9 9 9 10 11 11 11 11 11 10 11 10 11 11 12 12 12 12 12 12 12 12 11 12 12 12 12 12 13 14 15
14 26 34 26 28 64 96 100 97 95 96 96 93 93 93 89 87 82 78 80 80 78 76 78 89 97 95 89 80 69 59 50 45 40 32 23 17 11 7 7 8 8 9 8 7 8 9 10 10 9 8 8 8 8 8 8 8 9 10 14 18 16 11 10 10 10 9 10 9 9 10 10 10 11 11 10 10 10 10 11 12 13 13 13 12 12 11 12 12 13 13 12 12 13 13 14 14
13 25 34 34 26 46 86 102 96 93 94 96 93 89 87 85 82 80 80 82 80 77 76 74 82 95 99 94 86 78 71 62 53 46 41 33 26 20 12 7 7 7 8 9 8 7 7 9 11 11 9 9 9 9 8 9 9 9 9 12 17 21 17 11 11 11 10 10 10 10 10 10 10 10 10 10 10 10 10 10 11 12 13 13 13 13 11 11 12 13 14 14 14 14 15 16 15
10 22 32 39 32 36 70 97 98 93 94 95 92 84 81 80 78 79 80 79 76 74 72 71 75 84 94 98 93 85 80 74 63 53 47 41 34 29 21 13 9 7 7 8 8 8 7 7 10 11 10 9 10 9 9 9 9 10 10 10 12 19 22 17 13 11 11 11 10 10 10 11 11 10 9 10 10 10 10 10 10 10 11 12 13 14 13 11 10 11 12 13 14 15 15 16 16
8 18 30 39 40 38 55 80 91 93 93 90 87 81 75 72 73 78 79 77 74 73 71 69 67 68 80 94 96 88 85 83 75 63 55 48 39 33 29 20 12 9 7 7 8 8 8 8 8 9 9 10 10 10 10 10 10 10 11 11 10 14 21 23 20 14 12 13 12 11 11 11 11 10 9 9 10 10 10 10 10 9 9 10 12 14 14 13 11 10 10 10 12 13 14 15 16
7 14 25 37 42 43 52 67 77 83 86 85 81 77 69 65 68 71 74 74 70 68 68 66 64 61 70 92 99 91 89 91 86 74 63 55 45 39 39 29 16 13 10 8 8 8 8 8 8 8 8 9 10 11 11 11 11 11 11 11 11 11 15 23 28 22 15 16 15 12 12 12 12 11 11 10 10 10 10 10 10 10 10 9 11 13 14 14 13 12 11 10 10 11 12 14 15
8 10 19 32 39 43 50 58 61 66 76 82 77 68 61 62 69 67 66 68 65 62 62 59 60 60 65 83 97 95 91 91 91 83 71 62 54 48 47 37 23 19 15 10 8 8 8 8 8 8 8 8 8 10 12 12 12 11 11 11 11 11 11 16 25 25 18 18 18 13 13 14 12 12 12 12 11 10 10 10 10 11 11 11 11 12 12 11 12 13 14 13 11 11 12 13 13
9 9 14 23 29 34 38 41 50 59 71 81 76 62 54 56 65 68 65 63 61 59 58 54 53 60 68 76 85 92 92 90 90 87 79 72 64 55 50 41 28 23 19 13 9 9 9 8 8 8 8 7 8 8 10 12 12 12 11 11 11 12 13 13 17 19 17 19 21 17 15 16 13 12 13 13 12 12 12 12 12 12 13 14 13 12 10 9 9 10 12 13 12 12 12 13 13
10 9 14 21 22 25 28 31 46 58 64 76 72 53 46 50 58 65 65 62 58 57 59 55 47 53 72 80 77 80 88 91 88 84 83 83 74 60 51 42 29 23 21 17 13 10 9 9 8 8 8 8 8 8 8 10 11 12 12 12 12 11 14 16 16 15 13 17 21 19 18 17 14 11 12 13 12 13 14 15 15 15 15 15 14 13 11 10 10 10 11 13 12 13 13 12 12
11 9 12 19 20 26 35 40 51 58 58 64 62 45 38 46 55 58 59 59 58 57 59 58 51 49 64 81 84 81 85 92 91 88 88 89 82 67 54 44 30 22 21 19 16 14 10 9 8 8 8 8 8 8 7 8 9 11 12 13 14 13 13 17 19 16 11 13 17 18 18 19 16 12 11 13 12 12 15 17 18 18 18 15 13 14 13 12 12 12 13 14 12 12 13 13 12
12 11 8 12 24 37 44 50 53 52 48 47 52 52 42 45 60 60 57 59 55 57 62 59 58 57 59 71 84 88 89 89 91 96 96 94 90 75 60 51 35 25 27 26 21 17 11 9 8 8 8 8 9 8 8 7 7 9 11 12 13 14 14 17 21 18 12 11 14 14 16 18 18 16 13 12 12 11 13 17 20 21 20 17 15 16 16 15 13 12 13 13 12 11 11 11 11
11 12 10 13 30 39 39 45 43 35 34 32 39 50 40 41 65 69 63 63 56 56 66 63 62 67 67 72 85 94 95 90 88 94 97 98 98 81 65 60 48 36 37 38 30 21 15 11 8 8 8 8 8 8 8 8 7 7 9 10 11 13 14 16 20 19 13 11 13 13 13 15 16 18 17 15 12 11 12 16 20 22 20 19 19 19 18 17 15 14 15 13 12 11 10 10 10
12 13 13 13 21 27 28 34 27 18 24 23 25 37 30 30 61 80 76 73 66 62 67 67 65 70 73 79 90 96 96 94 90 93 97 98 99 87 69 64 57 48 48 48 42 31 22 18 14 10 9 7 8 8 8 8 8 8 8 8 8 10 12 14 17 18 15 12 12 13 13 13 13 16 18 18 16 13 11 13 18 21 21 21 23 24 23 22 21 20 20 18 14 12 11 10 9
13 15 15 13 14 22 29 29 21 17 22 19 17 27 25 20 48 84 92 83 78 77 75 72 70 74 76 81 90 91 88 89 88 91 98 98 95 90 79 70 64 58 56 56 55 48 37 29 24 19 15 11 9 8 8 9 9 9 8 8 8 8 9 11 14 17 16 14 12 12 13 13 13 13 14 15 17 17 15 12 14 18 20 21 23 26 28 28 28 26 25 23 18 13 10 11 10
13 15 16 15 13 19 28 29 25 25 25 22 17 17 20 20 35 73 98 94 86 86 84 80 76 78 83 84 87 86 83 84 83 86 97 97 92 91 88 84 80 73 67 63 62 63 57 48 41 36 32 28 21 15 11 9 9 9 9 9 8 8 8 9 11 14 16 15 14 13 13 13 13 13 13 13 14 16 17 15 12 13 17 20 22 25 28 30 30 30 29 28 23 15 12 12 12
14 15 16 18 15 14 21 23 21 23 26 25 19 13 19 27 33 58 91 100 93 88 89 87 80 81 86 86 84 82 82 82 79 84 94 94 90 91 91 90 89 85 80 73 70 69 66 61 55 51 50 48 42 36 27 19 12 9 9 9 8 8 8 8 10 11 13 15 16 14 13 13 14 13 13 13 12 13 16 17 15 12 12 16 20 21 23 25 27 29 30 30 28 24 19 16 15
Wind_Speed
9 9 9 9 11 13 12 11 10 7 8 10 10 10 9 8 8 9 10 11 12 11 9 10 11 11 12 14 14 13 14 14 15 15 15 14 12 10 11 13 12 11 11 12 12 12 12 12 11 11 10 10 11 11 11 12 13 14 14 14 13 13 13 13 13 12 12 12 11 11 10 9 8 7 7 9 9 8 8 8 8 7 6 7 8 9 9 9 10 10 10 10 11 11 10 10 9
8 8 9 10 12 13 12 12 10 7 8 9 9 9 8 8 9 10 10 10 11 10 9 9 10 11 12 13 13 13 13 14 14 15 16 15 13 11 11 12 12 12 12 12 12 13 13 12 12 11 11 11 12 12 12 13 13 13 14 13 13 13 13 14 13 12 11 10 10 10 8 7 7 6 6 8 8 8 7 8 9 7 7 7 8 9 10 10 10 10 10 11 10 10 10 9 9
8 8 8 11 13 13 13 12 10 8 8 8 8 9 8 8 9 10 9 10 10 9 9 10 10 11 11 12 12 13 13 13 14 15 16 15 13 12 12 12 12 13 12 12 13 13 12 12 12 12 12 12 12 12 12 12 12 12 12 12 11 12 13 13 13 12 10 8 8 8 7 6 5 5 6 7 7 7 7 8 9 9 8 8 8 9 9 10 10 10 10 10 10 9 9 9 9
6 7 8 11 13 13 12 11 10 8 7 7 8 9 9 8 8 9 8 9 9 9 10 10 12 12 11 11 12 12 13 13 13 15 17 15 13 13 13 13 13 13 13 13 13 13 12 12 12 12 12 12 11 11 11 11 11 12 12 11 11 11 12 12 11 10 9 7 6 6 5 4 4 4 5 8 7 6 7 7 7 7 8 8 8 8 9 9 10 10 10 10 9 9 9 9 9
5 6 9 11 12 14 13 11 10 8 7 8 8 8 8 8 7 7 7 9 9 9 10 10 12 13 11 10 11 12 12 12 13 14 16 16 14 14 14 13 13 14 13 13 13 12 12 12 12 12 11 11 10 10 10 10 11 12 11 10 10 10 9 9 9 9 8 7 5 6 5 4 4 3 5 8 8 6 5 6 5 5 7 9 8 9 9 9 10 11 10 10 9 10 10 9 9
3 5 8 10 11 14 12 11 10 7 7 7 7 7 7 7 7 7 7 10 10 9 10 10 12 15 13 11 11 11 12 12 12 13 14 16 15 14 14 14 14 14 13 13 13 12 12 12 11 11 10 10 10 10 10 11 11 11 9 8 9 9 9 9 9 10 10 8 7 8 7 5 5 5 5 7 9 7 6 6 5 4 7 9 9 11 11 10 11 12 11 10 11 11 11 10 11
2 5 7 8 11 12 10 10 12 8 6 6 6 7 7 7 7 7 7 10 11 11 11 10 12 15 14 13 12 11 12 12 12 13 13 15 15 13 14 14 14 14 14 13 13 13 12 12 11 11 10 10 10 10 10 11 12 10 7 7 9 10 10 10 11 11 11 9 8 10 10 7 6 5 6 7 9 9 8 8 6 5 7 10 10 12 12 11 12 13 12 12 12 13 12 12 13
1 4 6 7 9 10 8 9 12 10 5 5 6 6 6 7 7 7 7 10 11 12 12 11 12 15 15 14 13 12 12 13 13 13 13 15 15 13 13 14 14 14 14 13 13 12 12 12 11 11 11 10 10 10 11 12 12 9 6 7 10 11 11 11 12 12 11 10 9 11 11 9 7 6 7 9 10 9 8 8 6 5 8 10 10 11 12 12 13 13 13 13 13 14 14 14 14
0 3 4 6 6 6 6 6 10 11 7 5 6 5 5 6 6 6 7 9 10 12 13 12 12 14 16 15 14 12 13 13 13 13 13 14 15 13 13 13 14 14 14 13 13 13 12 12 12 11 11 11 11 10 11 13 12 8 7 9 12 12 12 13 14 14 13 13 12 12 12 10 9 8 8 8 8 8 8 9 7 6 8 10 10 11 12 13 13 13 14 14 14 15 15 14 14
2 1 3 4 4 4 4 5 7 8 7 5 6 5 5 5 6 5 7 10 10 12 15 13 13 14 16 16 15 12 12 13 13 13 13 14 15 14 13 13 13 13 14 13 13 12 12 12 12 11 11 11 11 10 10 14 12 8 9 11 13 14 14 15 16 16 15 14 13 12 11 10 9 9 9 6 6 7 8 9 8 7 8 10 12 13 12 13 14 14 15 15 16 16 16 15 14
3 1 1 2 2 3 3 4 6 6 6 3 4 5 6 5 5 5 7 11 11 12 15 15 14 15 16 16 15 13 12 13 12 13 13 14 14 14 14 14 13 13 13 13 13 13 13 12 12 12 12 12 11 10 11 14 14 12 12 14 16 16 15 16 17 16 15 14 13 12 11 10 8 9 10 6 6 8 9 10 9 9 9 11 14 15 14 14 15 15 16 16 17 17 17 15 15
5 3 2 2 3 3 2 4 4 4 4 2 3 5 7 6 6 6 7 11 12 12 15 15 15 15 17 17 16 14 12 12 11 12 14 14 14 14 14 14 14 13 13 13 13 13 13 13 13 13 13 13 13 12 13 15 17 15 15 16 16 16 16 16 16 16 16 15 14 12 11 9 8 10 10 6 6 8 10 12 11 9 10 12 14 15 15 15 16 17 16 16 19 19 17 16 16
6 5 4 3 4 4 4 5 4 3 2 1 3 5 8 7 7 8 8 11 12 13 14 15 15 16 17 17 17 15 13 12 11 11 14 14 14 14 14 14 14 14 13 13 13 13 13 14 14 13 14 14 13 13 13 15 17 17 16 16 15 15 15 16 15 15 16 15 14 12 11 9 8 9 10 6 6 7 10 13 12 11 11 12 13 14 15 16 17 17 16 18 20 20 18 16 17
7 6 6 5 5 6 7 7 7 6 5 4 5 7 10 9 8 9 11 12 12 12 13 13 14 15 17 18 18 16 13 12 11 11 13 14 14 14 14 14 14 14 14 13 13 13 13 14 14 14 14 14 14 13 13 14 15 16 15 15 15 15 15 16 15 15 16 16 15 13 11 9 8 10 10 8 6 6 9 13 14 13 12 14 14 15 16 16 17 17 16 17 19 19 18 17 17
8 7 7 7 7 8 9 10 10 8 10 10 10 11 13 11 9 10 11 13 14 12 11 11 10 12 16 18 19 17 14 12 11 11 13 14 15 14 14 13 14 14 14 13 13 14 14 14 14 14 14 14 13 13 13 14 15 15 14 14 15 15 15 16 15 15 16 17 16 14 11 9 8 10 11 10 8 7 9 12 14 14 14 16 16 16 16 16 17 16 14 15 16 16 16 17 17
9 9 8 8 8 9 10 11 11 11 13 14 16 15 15 13 10 11 11 12 14 14 12 11 9 9 14 17 20 18 14 13 12 12 13 15 15 14 14 13 13 13 13 13 13 13 14 14 14 13 14 13 13 12 13 14 15 15 13 12 13 14 14 15 15 16 16 17 16 14 12 10 9 11 13 12 10 9 10 13 14 16 17 17 18 18 18 16 17 16 14 14 15 15 15 16 16
10 10 8 8 9 9 10 11 12 12 12 19 21 18 18 14 11 12 13 12 13 15 13 11 9 8 12 16 20 19 15 13 13 13 14 15 15 15 14 13 13 13 13 13 13 14 14 14 13 13 13 13 12 12 13 14 15 15 13 11 11 13 14 15 15 16 16 16 16 15 14 12 10 12 16 15 13 11 12 14 16 17 18 18 18 18 19 18 17 17 16 15 15 16 16 15 14
10 10 8 8 8 9 9 10 11 10 11 20 24 21 20 16 13 13 14 14 13 15 15 14 10 8 10 14 19 20 16 14 13 14 14 15 15 15 15 14 14 14 13 13 14 14 14 14 14 14 13 13 12 12 12 13 15 15 13 11 11 13 15 15 15 16 16 16 15 15 15 14 12 13 16 18 16 14 14 15 16 18 18 18 17 17 17 17 17 17 16 15 14 16 16 14 13
11 10 8 7 7 7 7 9 9 7 8 19 25 23 21 17 16 15 15 16 16 16 16 15 11 9 10 13 19 20 17 14 13 14 15 16 16 16 16 15 15 14 14 13 14 15 15 15 14 14 14 13 12 12 12 13 15 16 14 12 11 12 14 16 17 17 17 16 15 15 15 15 14 13 15 18 18 17 17 16 16 17 18 18 18 17 16 16 16 16 16 15 14 15 15 14 12
12 10 7 7 6 6 5 6 8 3 15 24 25 22 20 17 16 15 16 17 17 17 18 18 13 12 11 13 19 20 17 15 14 14 15 16 16 16 16 16 16 15 14 14 14 15 15 15 14 14 14 13 12 12 12 14 16 17 16 14 12 12 13 15 17 18 17 17 16 16 16 16 16 15 14 16 17 18 18 17 17 18 18 18 18 17 17 16 16 16 16 15 14 13 13 12 12
13 10 7 6 4 4 3 4 7 14 24 24 22 20 19 17 15 16 17 17 17 16 17 20 17 15 14 14 18 19 18 17 15 15 16 17 17 16 16 16 16 16 15 15 15 15 15 15 15 14 13 12 12 12 12 14 16 17 17 16 14 12 12 13 16 18 18 17 17 17 17 16 16 16 15 15 15 17 18 18 19 18 18 17 17 17 18 17 16 16 16 15 13 12 11 12 13
14 11 8 5 4 2 2 4 8 15 21 20 19 20 18 15 13 14 15 17 18 16 16 19 19 18 17 16 18 19 18 17 16 15 16 17 17 17 17 16 16 16 15 15 15 15 15 16 15 14 13 12 12 11 12 13 14 16 17 17 16 14 13 13 15 17 17 17 17 18 17 17 17 17 17 16 16 16 17 18 18 18 17 16 16 17 17 16 16 15 15 14 13 12 12 13 15
16 13 9 6 4 1 1 4 8 11 15 17 17 17 16 13 11 12 13 14 17 17 16 17 17 17 18 18 19 19 17 16 15 15 15 16 17 17 17 16 16 16 16 15 15 15 16 16 15 15 13 13 12 11 12 13 14 15 16 17 17 16 15 14 15 16 16 17 17 17 18 17 16 17 17 17 17 16 16 17 17 16 16 15 16 16 15 15 15 14 14 14 13 14 15 16 17
18 15 11 7 5 2 3 6 8 9 12 15 15 14 14 12 11 12 13 13 16 17 16 16 16 15 16 17 19 19 18 16 15 15 15 16 16 16 16 16 16 15 15 15 15 15 16 16 16 15 14 14 13 12 13 13 14 15 16 16 17 17 17 16 16 16 16 16 17 17 17 17 16 16 17 18 17 17 17 16 16 15 15 15 15 15 15 14 14 14 15 15 16 17 17 17 18
20 17 13 9 7 7 7 8 9 10 11 12 13 13 13 11 11 12 13 13 15 17 17 17 16 14 14 16 19 19 18 17 16 15 15 16 16 16 16 16 16 16 15 15 15 15 16 16 15 15 15 14 13 13 13 15 15 16 16 16 16 17 18 17 16 16 15 15 16 16 17 16 16 16 16 17 17 17 17 16 16 15 15 15 15 15 14 14 15 16 16 17 18 18 18 18 18
22 19 14 12 11 9 8 9 11 12 12 13 13 13 13 12 11 11 12 13 14 15 17 17 16 14 13 15 18 19 19 18 17 17 16 16 16 16 16 16 16 16 16 15 15 15 15 15 15 15 15 14 14 13 14 15 16 16 16 15 15 16 17 17 16 15 15 15 15 16 16 16 16 16 16 16 16 16 16 16 16 16 16 16 15 15 15 15 16 17 17 18 18 19 19 18 18
22 18 15 14 14 12 10 10 12 14 14 14 14 14 14 13 12 12 12 14 14 14 16 17 17 15 14 15 16 17 18 18 17 17 17 17 17 16 16 16 16 16 16 16 15 15 15 14 15 15 15 14 14 14 15 15 16 16 15 14 15 16 16 17 16 15 14 15 15 16 17 16 16 16 16 16 16 16 16 16 16 16 16 16 16 16 16 17 17 17 17 18 18 19 19 19 19
21 19 18 16 14 14 13 12 13 14 14 15 15 16 17 15 14 13 13 14 14 14 15 16 16 15 14 14 15 16 17 17 17 17 17 17 16 16 16 16 16 16 16 16 16 15 14 14 15 15 16 15 15 15 15 15 16 15 15 14 15 16 16 16 15 15 14 15 15 16 17 17 16 16 16 16 16 16 16 16 16 16 16 17 17 18 18 18 18 18 18 18 19 20 20 20 19
20 20 19 17 15 16 15 14 14 14 13 15 17 18 18 18 16 14 14 14 14 14 14 16 17 16 14 13 13 14 15 16 16 16 16 16 16 16 15 15 15 16 16 16 16 16 14 13 14 15 15 15 15 15 15 15 15 15 15 14 15 15 16 16 15 15 15 15 15 16 16 16 16 16 16 16 16 16 16 16 16 17 18 19 19 19 19 19 18 18 18 19 19 20 20 20 19
21 21 20 18 19 18 16 14 14 15 15 16 17 18 19 19 18 16 14 14 15 14 14 15 17 16 15 14 13 14 14 15 15 15 16 16 16 15 15 15 15 15 15 16 16 16 15 13 13 14 14 14 14 14 14 14 14 14 14 14 14 15 16 15 15 14 15 15 15 15 16 16 16 16 16 16 16 16 16 17 17 18 19 20 20 19 19 19 18 18 18 19 19 20 20 20 19
21 20 19 20 20 19 16 14 14 16 16 16 18 19 21 20 19 18 16 16 16 15 15 16 17 17 15 14 15 14 14 15 15 15 16 16 15 15 15 14 14 15 15 15 15 16 15 13 13 13 14 14 13 13 13 13 13 13 13 13 13 14 15 15 15 14 15 15 15 15 15 16 16 16 16 16 16 16 17 17 18 19 20 20 20 20 19 19 18 18 18 19 18 19 19 19 19
21 20 19 21 21 19 16 14 15 16 15 16 19 21 21 21 21 20 18 17 17 16 16 17 17 18 16 15 15 15 14 14 15 15 15 15 15 15 14 14 14 14 14 15 15 15 15 14 14 13 13 13 12 12 12 12 12 12 12 12 12 13 14 15 15 14 15 15 15 14 14 15 16 16 16 16 17 17 17 18 19 20 20 20 19 19 19 18 17 17 18 18 18 18 19 19 18
21 20 21 21 22 20 17 15 15 15 14 14 18 20 20 20 20 21 20 18 17 17 17 17 17 18 17 15 15 15 15 15 15 15 15 14 14 14 14 14 14 13 13 14 14 14 14 14 14 14 13 12 12 12 12 12 12 12 11 11 11 11 13 14 15 15 15 15 15 14 14 14 15 16 16 17 17 18 18 19 19 19 20 19 19 19 18 17 17 17 17 17 17 17 18 18 18
21 20 21 21 22 21 19 17 15 15 15 14 16 18 19 18 17 19 20 19 18 17 17 16 17 18 18 16 16 16 17 16 16 16 15 15 14 14 13 14 14 13 13 13 14 14 14 14 14 14 13 13 12 12 12 12 12 11 11 11 10 10 11 13 14 14 14 14 14 14 14 14 14 15 15 16 17 17 18 18 18 18 18 18 18 18 18 17 16 16 16 16 16 16 17 17 17
20 20 22 22 22 22 20 17 16 15 16 17 16 15 18 19 17 17 18 20 20 18 18 17 16 17 18 18 17 17 18 18 17 16 16 15 15 14 14 14 15 15 14 13 13 14 14 14 14 14 13 13 13 12 13 13 12 11 10 10 10 10 10 11 12 13 14 14 14 13 13 13 13 13 14 14 15 16 16 17 17 17 17 17 17 17 17 16 16 16 15 15 15 15 16 15 15
23 23 24 24 22 23 21 19 18 17 15 18 18 15 17 19 19 17 16 19 22 20 19 18 17 16 18 18 18 17 18 18 18 16 16 15 15 15 14 14 14 15 15 14 13 13 14 14 14 14 13 13 13 12 12 12 12 11 10 10 10 10 10 10 11 12 13 13 13 13 12 12 12 12 12 13 13 13 14 15 15 16 16 16 16 16 16 15 15 15 14 14 14 14 14 14 13
24 24 25 25 23 21 21 19 18 19 16 17 18 15 14 16 17 16 16 17 20 22 20 19 18 17 17 18 17 17 17 18 17 16 16 15 14 14 14 14 14 15 15 15 14 13 13 13 13 13 13 13 13 12 11 11 11 11 10 10 10 10 10 10 10 10 11 11 12 12 12 11 11 11 11 11 12 12 12 12 13 13 14 14 14 15 14 14 13 13 13 13 13 13 13 13 12
24 24 25 26 24 21 20 19 19 21 19 17 17 16 13 13 14 14 14 13 16 23 23 20 20 19 18 18 17 17 16 16 16 16 15 15 14 13 14 14 14 15 15 15 14 13 12 13 13 13 12 13 13 12 11 10 10 10 9 9 9 10 10 10 9 9 10 10 10 11 11 11 11 11 11 11 11 11 11 11 11 11 11 12 12 13 13 12 12 12 11 11 11 11 11 11 11
24 25 26 27 25 21 21 21 22 22 21 19 18 17 15 14 14 14 14 12 14 23 26 22 21 21 19 19 17 16 15 14 15 16 16 16 15 14 14 15 14 14 15 15 15 14 13 13 13 13 13 13 13 12 11 10 9 9 9 8 8 9 9 9 9 9 9 9 9 10 10 10 10 10 10 10 10 11 11 11 11 11 10 10 11 11 11 11 11 11 10 9 9 9 10 10 10
24 25 26 28 27 24 23 23 23 22 22 22 21 19 18 16 16 16 15 14 14 19 24 22 22 21 20 19 18 17 16 16 15 16 17 17 17 16 15 15 14 14 15 16 16 15 14 14 14 13 13 14 14 13 12 11 10 10 9 9 8 8 8 9 9 9 9 9 9 9 9 9 9 9 9 9 10 10 10 10 10 10 10 10 10 10 10 10 10 10 10 9 8 8 8 9 9
25 25 26 28 29 27 26 25 24 24 23 24 23 22 21 19 19 19 17 15 14 16 18 20 21 22 20 18 18 18 18 17 16 16 16 17 18 18 17 15 15 14 14 15 16 16 15 15 14 14 14 14 15 14 13 12 11 10 9 8 8 7 7 8 8 9 9 9 9 9 9 9 9 9 9 9 9 9 9 9 9 9 9 9 9 9 9 9 9 9 9 8 8 7 7 7 8
26 25 26 29 31 30 28 26 26 26 24 24 24 23 22 21 20 20 19 17 17 16 16 18 22 23 22 18 17 19 18 17 16 16 17 18 19 19 18 17 16 15 14 14 15 15 15 15 15 15 15 15 15 15 14 12 11 10 8 7 7 7 7 8 8 9 9 10 10 10 9 10 10 9 9 9 8 8 9 8 8 8 8 8 8 8 7 7 7 8 8 8 7 7 6 6 7
27 26 27 30 32 32 30 28 28 29 28 26 25 24 23 21 21 21 20 19 18 17 17 18 22 25 24 20 19 19 18 17 16 15 16 17 17 17 18 18 17 17 15 14 14 15 16 16 16 16 15 15 15 15 14 13 11 10 9 8 8 7 7 8 9 9 9 10 10 10 10 10 10 10 9 9 9 9 8 8 8 8 8 8 7 7 7 7 7 7 7 7 7 7 6 6 6
29 27 28 30 33 34 32 30 31 32 32 30 27 26 24 22 21 22 22 19 18 18 18 17 17 21 23 21 21 20 18 18 17 16 16 15 15 16 18 19 18 18 16 15 15 15 16 16 17 17 17 16 15 14 14 13 11 10 9 9 9 9 8 8 8 8 9 9 10 10 10 10 10 10 9 9 9 9 9 9 8 8 8 7 7 6 6 6 6 7 7 7 7 6 6 5 5
31 29 30 31 33 36 35 33 33 34 35 32 29 27 25 23 22 21 21 20 19 18 20 19 16 18 21 23 22 21 19 19 18 18 17 16 16 17 18 18 18 18 18 17 16 16 16 16 17 18 18 17 16 14 13 13 11 10 10 10 10 10 9 8 8 8 8 9 9 9 10 10 10 10 10 9 9 9 9 8 8 7 7 6 5 5 6 6 6 7 7 7 7 6 6 6 6
33 32 32 32 33 36 37 35 34 36 36 32 30 29 27 25 23 20 20 21 21 20 20 21 20 19 21 23 22 20 20 20 19 19 19 17 17 17 17 17 17 19 19 18 18 17 17 17 17 18 18 17 17 15 13 12 12 11 11 11 10 9 9 8 8 7 7 8 8 9 10 10 10 10 10 10 9 9 9 8 7 6 6 5 5 5 6 6 7 7 7 7 7 6 6 7 7
34 35 34 34 34 35 38 38 37 38 36 32 31 30 29 28 26 23 22 21 22 22 21 21 22 21 21 22 23 21 20 20 20 20 19 19 17 16 15 16 17 18 18 18 19 19 18 18 18 18 17 17 16 16 14 14 13 13 12 12 10 9 8 8 7 7 6 7 7 9 10 10 11 11 11 11 10 10 9 9 8 7 6 6 6 7 7 7 8 8 8 7 7 7 7 7 7
36 38 37 36 36 36 38 39 40 39 36 32 31 31 31 29 27 27 26 23 22 22 21 20 21 21 21 22 23 22 22 21 21 21 20 19 17 14 14 15 16 17 17 18 19 20 19 19 19 19 18 17 16 16 15 15 15 14 14 13 12 11 10 9 8 7 7 7 7 8 8 9 10 11 11 11 11 11 11 10 9 9 8 9 9 9 9 8 8 8 8 8 7 7 7 7 8
37 39 39 38 38 38 38 40 40 40 36 32 32 33 31 28 27 29 28 25 23 21 21 21 21 21 21 23 24 23 23 22 22 22 21 19 17 15 15 15 15 16 17 19 20 20 20 20 20 20 19 17 16 16 16 16 16 16 16 15 14 12 11 10 10 9 8 8 7 7 8 9 10 11 11 12 12 13 12 11 10 10 10 10 10 10 10 9 8 8 8 8 8 8 8 8 8
38 39 40 40 40 39 40 40 40 39 35 31 32 33 30 27 27 28 27 26 24 22 22 22 22 20 20 23 25 24 23 23 22 22 21 20 19 18 18 18 18 18 18 20 20 20 20 20 20 20 19 18 17 17 17 17 17 17 16 16 15 13 12 11 11 10 10 9 8 8 8 9 9 10 11 12 12 12 12 12 11 10 10 9 10 10 10 9 8 8 8 8 8 9 9 9 9
38 38 40 41 40 39 39 39 38 36 32 31 32 33 30 27 27 27 25 25 25 23 23 23 23 21 19 21 24 25 25 24 23 23 22 22 21 21 20 20 21 20 20 20 21 21 20 20 20 20 20 19 19 18 18 18 17 17 17 16 16 15 13 12 12 12 11 10 10 9 9 9 9 10 11 11 11 11 11 11 11 10 10 9 9 9 9 9 8 8 8 9 9 9 10 10 10
40 38 40 42 40 39 38 37 36 33 31 32 33 32 29 25 26 27 26 26 25 25 24 23 23 22 19 18 20 23 26 27 25 25 25 24 23 22 22 22 22 22 21 21 21 21 22 21 21 20 20 19 19 20 19 19 18 17 17 17 16 16 15 14 13 13 13 12 11 10 10 9 10 10 11 11 11 11 11 11 11 10 10 9 9 8 7 7 8 8 8 8 9 9 10 10 10
41 40 41 41 41 40 39 38 36 33 33 34 33 31 28 24 24 25 26 26 26 25 24 23 22 20 19 18 18 21 24 26 27 27 28 28 26 25 24 24 23 22 21 21 21 21 22 22 22 21 20 19 19 20 20 20 19 18 18 18 18 17 17 16 15 15 14 13 12 11 11 11 10 9 9 10 10 10 10 10 11 10 10 9 8 8 7 7 7 8 8 8 8 9 9 9 9
42 40 39 40 41 42 41 39 37 35 35 35 33 32 29 25 24 24 24 25 26 25 24 22 20 19 18 18 18 19 21 23 26 29 31 31 30 27 25 24 23 22 22 22 22 21 21 21 22 21 21 21 20 20 21 21 21 20 20 19 19 19 18 18 17 16 16 15 14 13 12 12 10 9 9 9 9 9 9 10 10 10 10 9 9 8 8 8 7 8 8 8 8 8 9 9 10
42 41 39 40 43 44 43 41 39 37 37 36 33 32 31 27 24 23 23 23 23 24 24 22 20 19 19 19 19 20 20 21 22 28 35 34 29 28 26 25 24 24 23 23 22 21 19 18 19 20 21 21 20 20 20 20 21 21 21 21 20 20 19 19 18 18 17 17 16 15 14 13 12 11 10 9 9 9 9 9 10 10 10 10 10 9 8 8 8 8 8 8 8 8 8 9 9
42 42 40 41 43 44 43 42 40 38 39 37 34 32 32 28 24 24 24 22 22 23 24 23 21 19 19 19 20 20 20 21 19 23 34 38 31 28 27 25 26 25 24 24 23 21 19 18 18 19 19 19 19 19 20 20 21 22 22 22 22 21 20 20 19 19 19 18 17 17 15 14 13 13 12 11 10 9 9 9 10 11 11 11 10 10 9 9 8 8 8 8 8 9 9 9 9
41 42 41 42 43 44 44 43 41 40 40 37 34 33 32 29 26 26 25 23 22 23 24 23 22 20 20 19 19 19 19 20 18 17 27 37 34 30 28 26 26 26 26 26 24 22 21 20 20 19 19 19 19 20 21 22 22 23 23 23 23 23 22 21 21 20 20 20 19 19 18 16 15 15 14 13 12 11 10 10 10 11 12 12 11 11 11 10 9 9 8 8 8 9 9 9 8
40 41 41 41 43 44 44 45 44 42 41 39 36 34 32 29 28 27 27 25 23 24 25 25 24 22 21 20 19 20 19 20 18 16 22 31 32 30 30 30 29 29 28 27 25 23 22 21 21 21 20 21 21 21 22 22 23 23 24 24 24 24 23 22 22 21 21 21 21 21 19 18 18 17 16 15 14 13 12 11 11 12 12 13 12 12 12 11 11 10 9 9 8 9 9 9 9
Wind_Direction
45 44 44 42 37 34 36 47 55 77 117 112 100 97 94 92 82 74 74 75 75 73 69 72 78 83 90 95 95 97 101 104 104 103 99 94 89 88 94 101 106 111 115 114 111 108 103 102 105 110 118 124 125 122 117 113 112 112 112 112 113 114 114 113 112 111 113 116 117 116 116 118 119 122 114 109 115 121 127 126 117 122 132 130 134 139 144 145 137 135 135 134 134 135 135 137 134
44 50 50 44 38 38 48 54 55 79 123 121 101 95 88 82 77 70 66 72 77 78 79 79 80 82 87 93 95 97 100 102 104 104 102 99 96 95 96 101 107 112 113 110 106 103 103 107 112 117 122 123 120 118 115 113 111 110 110 110 112 114 114 114 114 114 116 118 120 120 119 117 115 115 110 106 112 118 125 126 127 140 144 138 142 144 148 149 142 139 140 137 136 137 137 136 132
44 51 49 45 41 45 52 53 55 75 116 123 102 94 86 79 72 65 61 71 78 76 82 88 89 85 86 90 93 96 97 99 103 104 101 98 99 100 99 102 105 106 105 101 101 103 107 112 117 118 116 114 115 116 115 113 110 106 103 103 106 108 110 113 116 118 118 119 121 120 116 113 112 111 111 108 109 122 132 135 141 150 145 144 151 147 147 150 147 144 143 139 137 139 137 135 134
41 42 46 46 43 48 51 49 53 68 108 121 106 99 92 82 66 56 60 75 81 83 83 89 95 91 87 88 91 93 94 97 101 103 101 99 100 101 102 103 103 102 101 100 101 106 110 113 114 111 111 113 115 116 114 111 106 100 98 100 102 102 105 109 111 114 114 115 119 119 117 118 125 130 125 119 123 140 147 148 149 148 142 142 147 142 145 152 150 147 147 145 141 140 137 135 137
38 35 48 49 46 52 53 48 54 71 105 118 111 105 96 84 67 55 64 81 87 93 91 91 98 95 91 88 89 91 91 94 98 100 101 102 101 101 102 103 103 102 103 105 106 110 113 111 109 109 114 118 118 117 112 105 98 96 99 104 104 104 103 102 104 106 105 109 115 114 115 127 134 134 127 122 132 146 141 134 128 138 139 136 141 141 148 157 154 151 151 151 146 140 136 136 138
47 43 54 54 51 54 52 48 53 73 103 114 116 113 104 91 74 64 74 89 93 97 95 97 101 98 95 93 89 88 90 91 92 96 99 102 103 103 104 105 104 104 106 108 112 115 114 113 113 118 122 123 121 114 106 99 93 93 102 110 109 105 100 97 99 99 97 98 102 103 108 123 124 115 113 117 125 124 105 98 100 126 137 135 140 141 149 160 158 157 157 154 148 140 134 136 135
56 53 59 61 57 53 48 44 47 60 99 115 116 119 112 99 82 72 83 95 99 100 97 98 101 99 96 94 89 84 88 89 87 92 97 100 103 104 105 107 106 107 109 112 115 117 118 120 123 126 126 123 116 108 102 96 90 91 103 110 103 98 97 100 99 96 95 91 92 99 103 106 102 101 100 96 102 106 97 91 101 125 132 134 139 142 149 159 160 160 159 153 146 138 133 134 133
50 55 59 65 59 50 41 39 42 48 81 115 110 119 115 97 84 77 91 103 106 104 99 98 99 99 97 94 91 87 88 87 86 90 95 97 99 101 103 107 109 110 112 115 118 119 122 124 125 125 122 118 112 108 103 94 90 94 98 95 93 92 95 99 97 94 92 89 87 94 103 106 100 90 80 79 87 103 108 102 111 119 121 125 132 141 147 156 161 162 160 152 144 139 134 132 132
315 48 51 62 61 48 32 31 40 43 63 111 114 123 124 96 79 78 97 109 113 111 105 102 101 100 96 95 92 90 91 90 88 91 94 95 96 98 100 104 108 111 113 115 118 120 121 120 119 118 116 114 111 111 104 96 96 103 96 84 84 88 91 93 92 90 90 90 85 87 100 110 111 98 77 78 92 105 111 112 116 112 115 116 121 133 144 155 159 160 157 149 143 138 133 131 131
275 26 43 51 60 51 22 22 39 42 55 104 128 134 137 108 84 86 104 110 114 116 113 109 106 103 98 95 92 89 90 90 91 94 95 94 96 97 98 101 104 108 110 113 115 117 116 114 114 113 113 113 112 111 104 97 99 101 93 87 85 86 88 91 91 91 91 90 88 85 88 96 105 102 86 83 101 101 101 108 115 116 121 118 121 128 135 147 149 152 151 142 139 135 131 130 131
266 271 9 15 30 44 6 13 35 42 48 88 144 145 145 126 102 100 112 113 115 119 117 114 113 109 103 98 94 89 87 87 90 96 96 95 96 97 98 99 101 103 107 110 113 114 113 111 110 109 110 110 110 110 102 99 103 104 97 93 91 90 91 93 95 96 94 92 90 86 82 83 89 93 90 96 112 114 117 118 120 120 118 116 123 126 127 135 137 141 142 135 133 131 129 132 134
260 267 286 324 339 9 342 351 18 33 43 67 168 156 150 138 119 114 120 120 121 124 118 116 117 113 107 103 98 92 88 86 86 94 98 97 97 96 96 98 100 102 104 107 110 111 111 111 110 110 110 108 107 105 99 100 107 108 101 95 93 95 97 98 100 100 98 97 96 92 85 82 78 81 88 100 110 117 125 121 117 116 114 116 120 122 123 129 131 134 135 129 126 126 128 133 135
259 270 278 303 316 327 324 329 333 325 355 154 189 170 157 149 136 128 127 125 125 127 121 120 122 116 110 107 102 96 91 88 86 92 98 98 97 96 96 97 99 101 103 104 106 108 110 110 111 110 109 108 106 105 101 101 104 104 101 96 93 96 100 102 103 102 99 98 98 95 89 86 78 76 83 91 94 102 113 112 114 117 119 120 118 117 119 126 130 132 130 125 124 125 127 132 135
262 273 282 295 302 312 314 316 316 302 282 229 199 186 168 162 151 139 135 129 126 126 122 124 125 119 115 111 105 100 96 93 92 95 99 99 98 98 97 98 99 101 103 105 107 108 109 109 109 109 108 107 107 106 104 102 100 97 97 96 95 96 98 100 102 101 100 100 98 94 91 91 82 79 86 91 91 92 97 102 110 116 119 118 117 117 118 124 125 123 121 122 122 122 124 130 136
263 271 280 291 296 306 308 309 312 301 279 241 204 189 173 166 156 144 142 136 130 127 123 124 125 120 118 115 109 105 103 101 101 101 102 102 101 101 100 100 100 102 104 107 109 109 109 109 108 108 108 108 106 106 104 102 97 93 93 95 97 98 96 98 102 102 102 102 99 96 97 97 90 88 96 101 104 100 95 101 107 111 115 117 117 118 118 118 113 109 112 114 116 119 126 137 141
259 265 274 287 293 304 305 307 313 312 283 231 195 182 171 161 152 143 142 141 133 130 129 125 128 125 118 116 113 110 109 109 109 106 105 106 105 105 103 103 103 103 106 108 109 109 108 108 109 109 108 107 105 104 102 100 97 95 94 94 94 95 94 96 99 100 101 102 101 102 104 102 98 99 105 108 111 109 100 103 108 111 114 117 119 121 120 113 108 111 118 121 124 129 135 139 137
254 260 269 280 291 304 307 315 323 316 268 207 181 172 163 150 145 143 140 141 138 135 134 129 133 135 120 116 116 113 115 116 114 110 108 109 109 110 108 107 106 105 108 109 110 108 108 109 110 110 108 107 106 105 104 102 101 99 97 95 92 92 93 93 95 95 97 99 102 104 103 98 96 103 109 111 116 115 106 105 108 109 111 115 119 121 123 119 118 124 131 133 133 132 129 128 126
252 257 266 275 290 305 313 330 329 306 247 190 170 161 153 144 146 149 142 141 143 140 137 131 134 142 124 117 117 115 118 118 116 113 111 111 112 114 114 112 111 110 110 110 110 109 110 113 112 111 109 108 107 106 107 106 104 103 101 99 94 91 92 93 92 92 93 95 96 98 99 96 96 103 110 115 120 118 111 109 109 110 111 113 115 116 119 122 122 123 125 125 119 115 117 119 120
250 254 264 275 289 306 326 348 336 297 214 170 158 152 148 147 151 148 141 140 143 143 136 128 135 147 132 120 116 115 117 116 115 114 112 113 113 115 116 117 116 115 114 112 111 111 113 114 113 111 110 110 109 108 108 108 106 104 102 98 92 90 93 95 94 95 96 96 95 94 94 96 99 103 110 116 120 118 114 112 111 110 111 111 110 110 110 113 113 111 113 113 107 106 111 115 117
247 250 260 275 288 311 339 5 4 86 146 150 148 147 147 149 149 142 139 141 144 147 139 132 141 146 136 125 117 116 118 117 116 115 113 113 113 114 115 117 118 118 117 114 111 111 113 114 113 110 109 110 107 106 106 106 106 105 103 99 93 91 91 93 96 100 100 98 95 92 91 96 101 104 108 112 116 117 116 115 114 113 113 112 112 111 109 110 111 110 112 112 108 106 109 114 117
244 245 251 270 282 315 351 26 51 108 128 138 144 147 148 150 149 142 141 145 145 150 143 136 144 144 140 132 120 120 122 121 122 121 120 119 118 118 117 117 118 120 118 114 111 111 113 113 111 109 109 108 105 103 101 102 104 106 106 104 102 99 93 93 96 99 99 96 94 91 89 94 102 107 111 112 112 114 116 117 118 117 115 113 111 109 108 110 111 111 110 109 108 108 110 114 116
242 242 241 255 264 310 9 75 92 121 130 136 145 148 148 147 145 141 144 149 145 150 149 140 144 144 143 138 126 124 125 125 127 127 127 124 122 121 120 120 120 121 119 115 112 112 114 113 112 112 110 107 104 100 97 97 100 103 106 107 107 105 102 99 97 95 93 92 90 88 88 92 102 111 115 114 112 112 113 113 113 112 108 105 104 103 104 106 107 106 106 106 107 109 112 114 116
238 239 234 238 241 327 26 126 116 133 142 142 147 150 149 140 136 138 140 149 147 148 150 143 144 146 144 139 130 128 126 125 124 125 127 124 122 121 121 122 122 122 119 117 115 115 115 114 113 113 112 108 104 98 95 95 95 95 98 102 104 104 104 103 99 94 89 87 86 86 85 89 99 110 116 117 115 114 112 110 109 107 105 104 103 103 105 106 106 106 106 107 110 112 113 115 115
236 236 231 226 219 186 189 166 138 143 153 152 153 153 152 143 139 141 137 146 149 148 148 145 147 150 146 137 131 129 125 123 120 121 124 124 124 123 123 124 124 123 121 118 117 117 116 115 115 113 110 106 102 98 95 94 92 91 92 95 98 99 101 101 99 95 89 85 84 84 84 87 97 107 115 119 120 119 117 115 112 109 107 106 105 107 109 109 109 109 110 113 114 114 114 114 114
232 232 225 215 211 201 192 181 163 160 163 164 164 158 156 151 147 144 140 146 152 151 150 147 150 155 150 139 133 131 128 128 128 129 130 130 129 127 127 126 125 124 123 121 119 118 117 118 119 115 110 106 101 98 96 95 93 91 91 92 93 94 97 98 97 94 90 87 86 86 87 88 96 105 113 119 122 121 120 117 113 110 107 106 107 109 110 111 112 112 114 116 116 115 113 113 113
230 229 222 211 208 204 191 187 180 173 174 176 175 166 158 156 153 150 147 148 153 156 154 150 152 156 156 146 138 137 137 137 137 135 133 133 133 132 131 130 128 126 124 123 121 118 117 120 122 118 113 109 104 100 99 98 95 94 93 92 91 91 93 95 94 92 90 89 89 89 89 89 96 105 112 117 120 120 118 116 112 110 108 108 109 111 113 114 114 114 115 115 114 113 111 112 114
226 223 218 210 204 200 192 194 192 183 181 183 182 173 165 163 161 159 155 153 154 158 158 155 154 157 161 155 145 142 141 140 140 139 138 137 138 138 137 135 131 129 127 125 123 119 118 120 122 119 115 112 107 104 102 100 98 96 95 93 90 89 91 94 93 91 90 90 89 89 89 91 97 105 111 115 118 117 116 114 113 112 112 112 113 115 117 116 116 115 114 114 113 111 111 113 116
222 217 213 206 200 200 196 200 205 197 190 190 187 178 175 173 168 168 164 160 159 160 162 160 157 158 164 162 151 145 143 143 143 141 141 139 141 141 140 139 135 132 131 128 126 123 122 123 122 119 116 113 109 105 104 102 100 98 96 94 91 90 91 94 93 91 91 91 89 89 89 91 97 105 111 114 116 116 116 115 115 115 115 116 117 119 120 118 117 115 114 114 113 112 112 114 116
218 215 210 198 193 201 201 203 208 204 202 201 193 183 182 180 174 174 171 165 160 160 165 164 161 160 165 167 158 151 147 146 144 140 140 139 140 142 142 142 139 137 135 132 131 129 127 127 126 122 119 116 112 107 105 103 101 98 97 94 91 91 93 95 94 93 93 92 90 89 90 92 97 105 111 115 116 116 116 117 117 118 119 120 122 122 122 120 117 116 115 114 113 113 113 114 115
217 215 208 195 190 198 204 206 206 207 211 210 200 188 188 187 180 179 176 169 161 159 166 168 165 161 165 171 167 160 153 148 147 143 143 142 142 144 144 145 143 141 137 135 135 134 134 132 131 127 122 121 117 112 108 105 102 99 95 93 91 92 94 96 96 95 95 95 93 91 92 95 98 104 110 115 116 117 117 118 119 120 122 124 125 125 123 121 120 119 118 115 114 114 115 115 116
217 215 208 197 192 194 199 202 203 210 213 210 204 196 196 195 188 183 179 175 167 161 165 168 167 163 165 175 173 167 160 156 153 150 147 146 146 147 147 146 145 143 141 139 138 139 139 139 137 133 127 125 123 118 113 108 104 101 97 93 91 92 95 98 98 97 97 98 98 95 95 98 100 104 109 113 115 117 118 120 121 122 124 126 126 126 125 123 123 122 119 117 117 117 117 118 118
217 213 207 201 195 190 193 199 202 208 211 208 205 204 202 198 192 188 183 181 175 167 166 168 167 162 164 176 178 171 168 164 160 155 153 150 149 150 149 148 147 146 146 144 143 143 144 144 143 138 132 130 128 124 119 114 109 104 101 97 94 94 96 99 100 100 100 101 102 100 99 101 103 106 109 112 114 116 119 121 123 125 126 127 128 129 128 127 126 125 122 121 122 122 122 122 122
216 211 207 202 196 189 190 201 206 206 208 207 206 206 201 195 194 193 187 182 178 174 171 168 166 163 163 172 179 177 174 172 168 163 159 156 153 152 151 150 149 148 147 146 145 146 148 147 145 142 139 136 135 132 126 121 117 111 107 103 101 100 100 101 103 103 103 103 105 106 105 105 107 110 111 114 116 118 120 122 124 126 128 130 132 132 131 131 131 129 127 126 127 127 126 125 124
216 213 210 204 194 190 193 201 205 206 208 208 210 206 193 188 195 196 190 185 181 180 177 171 167 165 162 165 175 181 180 178 176 170 165 163 158 156 156 154 152 149 147 146 144 146 150 150 148 144 144 143 141 140 135 128 123 119 115 111 109 107 106 106 106 107 107 106 107 110 113 113 112 114 116 117 119 121 123 125 126 128 131 133 134 134 134 135 135 134 132 132 132 131 129 126 125
215 212 211 205 193 191 196 203 204 204 209 211 210 202 188 188 195 194 193 191 186 185 184 176 170 168 163 161 171 181 184 183 181 176 170 168 164 161 162 159 155 153 151 150 147 148 150 151 149 147 148 148 146 144 140 134 129 125 122 119 117 115 113 112 111 111 111 110 109 112 117 120 120 121 122 124 124 126 128 129 131 132 133 135 136 137 139 140 141 140 139 138 138 135 131 128 127
213 209 210 206 193 191 197 201 201 200 209 213 206 194 182 186 191 189 191 194 192 190 189 182 174 171 168 164 168 178 185 185 183 181 176 174 172 167 166 164 159 156 155 155 153 150 149 150 150 149 150 149 149 148 143 138 135 133 132 128 124 121 120 119 118 116 115 115 114 114 118 123 127 129 130 131 132 133 133 133 134 135 136 137 138 140 141 143 144 143 143 143 142 138 135 132 131
211 208 211 206 193 191 196 199 202 202 208 211 207 203 189 179 182 185 186 193 198 197 193 187 180 176 173 169 169 175 184 186 184 184 181 180 181 173 168 169 164 160 159 159 157 153 149 150 152 151 151 149 150 150 146 143 141 138 139 137 133 130 127 126 125 123 121 121 121 121 122 126 131 135 137 139 140 142 140 139 139 139 139 140 140 141 142 144 144 143 143 143 141 138 135 134 134
210 206 210 206 193 190 196 199 205 207 208 209 208 216 216 196 187 186 184 190 203 203 198 192 185 181 178 174 172 175 179 183 183 186 185 185 187 184 177 177 172 164 161 160 158 155 151 151 153 153 152 151 152 152 151 152 152 149 150 150 145 139 137 136 136 134 130 129 129 129 129 131 134 138 142 146 148 150 150 150 149 147 145 144 143 144 146 147 145 144 142 139 137 136 136 137 138
208 205 208 205 191 188 197 201 205 206 207 211 207 210 218 215 204 195 189 189 196 200 199 196 190 187 184 178 175 172 171 178 182 184 188 188 190 192 189 184 178 168 162 160 161 159 158 156 154 153 155 155 153 155 157 160 163 164 165 167 163 152 146 144 144 144 141 140 139 138 138 139 141 142 146 149 152 155 156 158 159 157 155 153 152 151 153 152 148 146 143 139 138 136 137 138 140
206 204 206 205 191 187 197 202 205 205 206 211 209 206 211 217 215 207 199 194 189 193 199 201 195 191 190 184 176 171 172 178 182 183 187 189 190 193 195 191 183 176 168 164 165 165 164 162 157 155 157 157 155 157 161 165 172 177 178 180 178 168 158 154 154 155 154 152 150 149 148 147 148 149 151 154 156 158 160 161 162 161 162 161 160 160 161 160 155 152 149 147 147 143 138 138 141
204 203 205 204 193 189 196 198 201 205 206 209 210 211 214 217 219 216 209 203 195 193 201 208 204 196 195 193 180 175 179 182 183 183 184 188 191 191 194 194 188 186 179 170 167 167 168 167 162 159 159 159 159 159 163 170 177 182 184 186 186 181 174 169 166 166 166 165 163 160 158 156 156 158 159 161 164 165 164 164 164 165 166 166 167 168 169 168 164 161 159 157 157 155 147 141 143
200 202 205 204 197 193 198 199 199 203 206 208 209 212 214 216 217 217 214 209 204 200 203 210 212 204 199 197 186 181 185 187 187 187 186 189 192 190 191 194 193 192 189 179 170 168 172 172 168 167 167 166 164 162 165 172 176 178 176 177 183 185 185 185 183 179 177 176 174 172 169 166 164 163 164 166 169 172 171 170 170 171 172 173 174 175 176 178 176 173 171 170 171 170 164 153 149
197 200 206 206 201 196 200 205 203 203 207 208 207 208 209 211 212 214 214 213 211 210 209 212 217 211 202 197 191 186 187 189 191 193 193 193 192 190 191 194 195 195 195 190 179 172 175 177 176 176 176 175 174 169 168 173 173 170 167 168 174 182 189 195 195 192 188 187 185 181 178 176 174 170 168 169 170 173 173 172 173 174 177 179 179 181 186 190 190 187 184 184 185 185 180 171 163
195 198 205 207 204 197 199 207 208 207 209 209 206 206 206 206 209 212 214 216 215 214 215 219 220 211 205 202 193 188 189 191 192 195 198 196 191 193 197 197 196 196 197 197 191 182 180 179 179 182 184 184 185 180 174 173 173 169 168 171 176 181 189 197 199 200 200 199 198 193 188 186 185 182 178 176 174 173 172 172 173 174 175 177 178 183 193 199 203 200 196 194 193 191 188 182 178
195 197 205 207 206 201 199 205 209 209 211 211 208 208 206 206 208 212 215 218 217 214 215 219 216 206 211 215 202 190 192 193 194 196 198 198 193 196 202 202 198 195 196 199 198 193 187 183 182 185 189 190 193 192 183 177 175 175 178 183 187 186 187 192 197 205 209 208 209 206 201 198 197 196 193 189 185 182 179 177 177 175 172 171 177 184 192 201 208 209 204 200 194 190 187 183 181
196 199 205 207 209 206 203 205 208 211 212 212 212 211 209 209 211 214 217 219 216 213 213 216 213 206 213 221 210 201 200 196 197 199 200 202 199 198 203 205 202 198 196 198 201 201 196 190 187 189 191 192 196 198 193 186 182 185 191 196 199 196 193 193 196 207 214 215 215 214 212 210 207 206 206 204 199 195 194 191 189 185 180 180 189 193 192 195 202 204 203 200 195 188 184 180 179
200 201 204 207 209 208 207 208 210 212 212 212 214 214 212 212 213 216 218 218 216 214 214 215 215 210 212 215 209 207 208 203 202 202 201 206 206 201 203 206 205 202 198 196 200 204 202 198 194 193 192 192 196 199 197 195 192 194 202 206 208 208 206 203 200 205 215 220 222 218 217 216 216 215 214 213 211 208 207 205 203 202 202 204 207 205 198 193 193 196 197 196 193 189 185 183 181
203 203 204 207 209 209 210 210 212 213 212 213 215 215 214 213 216 219 218 218 218 218 218 219 218 215 212 210 206 209 214 211 209 207 203 206 207 203 203 208 208 203 198 197 198 201 203 203 201 198 195 192 195 199 198 198 198 198 205 212 214 213 214 213 209 208 211 216 222 223 220 219 220 221 222 220 220 218 216 212 211 212 214 215 213 209 204 197 192 192 193 195 195 193 190 187 185
206 206 205 207 209 210 211 213 214 214 210 212 218 218 214 212 217 222 220 219 221 222 222 221 220 218 214 209 207 211 217 216 215 213 207 203 202 201 201 204 206 203 200 199 198 200 202 204 204 202 199 195 195 199 200 200 200 201 205 211 215 215 214 215 216 216 213 211 214 219 222 220 218 220 223 222 221 222 219 215 214 214 215 216 215 211 208 203 197 193 192 196 199 198 196 192 190
209 208 207 209 212 212 214 216 217 215 209 211 220 221 216 213 218 224 224 223 225 226 226 223 219 218 217 212 209 210 216 219 219 218 213 205 201 201 201 200 202 202 200 200 200 200 201 202 204 204 203 200 198 200 204 204 203 203 205 210 213 214 215 216 218 220 220 215 210 210 217 221 220 219 221 222 222 222 221 217 215 213 213 215 214 212 209 205 202 199 197 199 201 202 201 198 195
212 210 209 212 215 216 219 221 220 217 212 213 222 225 219 215 220 225 226 227 226 225 226 223 219 217 215 215 214 211 213 217 220 221 219 212 204 203 202 200 200 201 200 202 202 200 199 200 202 203 204 204 202 201 205 208 208 207 208 211 213 212 213 217 219 222 222 220 214 210 210 217 223 224 223 223 223 224 225 222 218 213 212 212 212 212 209 206 204 203 203 203 204 205 205 203 201
214 211 211 212 215 217 220 222 222 220 216 217 224 229 224 219 222 225 226 226 224 223 223 220 217 216 212 212 215 216 215 216 219 223 225 220 210 204 204 202 201 201 201 203 204 201 199 199 200 201 203 205 204 203 206 210 211 211 212 214 216 215 214 215 219 222 224 222 221 217 211 211 218 223 225 225 225 227 228 228 224 219 215 213 213 214 214 211 209 207 208 207 205 205 206 205 204
215 213 214 214 215 216 218 221 221 220 219 220 223 227 225 218 220 224 225 225 223 222 221 218 213 212 212 209 209 215 219 220 221 223 227 227 217 206 204 204 201 201 202 204 206 204 201 200 200 199 201 203 204 205 208 210 211 213 214 215 217 218 217 216 217 221 224 224 225 224 219 214 215 220 226 228 228 228 230 231 230 227 223 219 218 219 221 222 219 215 213 211 209 209 208 207 207
215 215 215 214 215 218 219 221 222 221 223 223 221 223 223 215 213 221 224 223 223 222 220 218 213 208 210 210 208 211 217 223 226 224 225 225 219 210 205 204 202 202 203 205 208 207 204 203 203 201 201 202 203 205 207 210 212 214 216 217 218 218 218 218 218 220 223 224 225 227 226 222 219 219 225 231 234 234 234 234 234 234 232 230 228 227 228 229 227 225 223 219 216 216 214 212 212
214 214 213 213 216 221 222 222 223 223 224 225 223 224 225 217 210 216 222 221 220 222 221 220 217 211 208 209 210 211 216 223 231 230 223 218 213 208 206 205 204 204 205 207 209 208 205 205 206 204 204 205 204 205 207 211 213 215 217 218 219 220 219 220 220 221 223 224 225 227 229 228 225 222 224 229 236 241 242 239 238 238 237 237 237 236 236 235 235 235 235 234 229 225 221 219 219
214 213 212 212 216 221 224 225 226 227 228 228 225 226 228 222 211 211 220 220 215 218 221 219 216 213 211 211 212 215 219 223 232 236 227 218 212 209 208 208 208 206 206 208 208 207 205 205 207 207 207 207 207 207 208 211 213 215 218 220 221 221 221 221 221 223 225 226 226 226 227 229 229 227 226 228 232 237 243 243 241 239 239 240 241 243 243 244 244 244 245 247 245 238 232 228 227
213 214 213 213 215 218 222 226 228 229 232 232 228 227 230 226 215 211 217 220 215 215 219 217 214 211 212 214 215 216 221 226 231 234 225 218 214 212 210 210 211 210 210 209 208 206 204 203 205 207 207 207 207 208 209 211 212 213 216 219 221 222 222 221 221 222 225 227 228 228 227 227 230 231 229 229 231 232 236 240 242 241 239 239 240 243 245 246 248 250 252 254 255 252 246 241 238
213 213 214 214 215 217 220 224 227 229 232 233 232 229 229 226 219 213 215 217 215 215 216 216 215 213 213 216 218 216 220 226 225 221 219 218 218 216 213 212 213 213 212 212 211 208 206 205 207 209 210 210 209 210 211 213 215 215 215 217 219 222 223 222 222 223 225 227 229 230 229 227 228 232 231 230 230 231 232 235 238 240 240 239 239 240 243 245 247 249 252 254 257 260 259 254 250